Regional Weather Roundup
Issued by NWS

Home | Current Version | Previous Version | Graphics & Text | Print | Product List | Glossary On
Versions: 1 2 3 4 5 6 7 8 9 10 11 12 13 14 15 16 17 18 19 20 21 22 23 24 25 26 27 28 29 30 31 32 33 34 35 36 37 38 39 40 41 42 43 44 45 46 47 48 49 50
000
ASUS43 KDTX 270010
RWRMI
MICHIGAN HOURLY REGIONAL WEATHER ROUNDUP
NATIONAL WEATHER SERVICE DETROIT/PONTIAC MI
800 PM EDT MON SEP 26 2016

NOTE: "FAIR" INDICATES FEW OR NO CLOUDS BELOW 12,000 FEET WITH NO
SIGNIFICANT WEATHER AND/OR OBSTRUCTION TO VISIBILITY.

MIZ047>049-052>055-059>063-066>070-074>076-081>083-270100-
SOUTHEAST LOWER MICHIGAN

CITY           SKY/WX    TMP DP  RH WIND       PRES   REMARKS
ADRIAN         CLEAR     61  40  45 W7        29.93R
6HR MIN TEMP:  61; 6HR MAX TEMP:  68;

ALMA           MOCLDY    59  43  55 SW8G17    29.86S
ANN ARBOR      CLEAR     56  42  59 SW7       29.91R
BAD AXE        LGT RAIN  54  46  74 W8G26     29.85R
6HR MIN TEMP:  54; 6HR MAX TEMP:  65;

CARO           PTCLDY    58  45  60 SW7       29.85S
DETROIT CITY   PTCLDY    64  40  41 W8        29.91R
6HR MIN TEMP:  63; 6HR MAX TEMP:  68;

DETROIT        PTCLDY    62  41  46 SW7       29.92R
6HR MIN TEMP:  62; 6HR MAX TEMP:  69;

FLINT          PTCLDY    58  43  57 SW8       29.89R
6HR MIN TEMP:  58; 6HR MAX TEMP:  67;

GROSSE ILE     CLEAR     63  41  44 W3        29.91R
6HR MIN TEMP:  62; 6HR MAX TEMP:  69; 6HR PCP:  0.01;

HILLSDALE      CLEAR     57  37  47 W3        29.93R
HOWELL         PTCLDY    58  43  57 W8        29.91R
6HR MIN TEMP:  58; 6HR MAX TEMP:  67;


CITY           SKY/WX    TMP DP  RH WIND       PRES   REMARKS
JACKSON        MOCLDY    59  42  53 SW5       29.92R
6HR MIN TEMP:  59; 6HR MAX TEMP:  68;

LAMBERTVILLE   CLEAR     63  41  44 W5        29.93S
6HR MIN TEMP:  63; 6HR MAX TEMP:  70;

LANSING        PTCLDY    59  41  51 SW9       29.90R
6HR MIN TEMP:  59; 6HR MAX TEMP:  68;

LAPEER         FAIR      60  41  49 W8        29.88R
6HR MIN TEMP:  60; 6HR MAX TEMP:  68;

MASON          PTCLDY    59  42  53 SW5       29.91S
MONROE         CLEAR     58  44  58 W5        29.91S
6HR MIN TEMP:  58; 6HR MAX TEMP:  70;

MT. CLEMENS    PTCLDY    63  42  46 W9        29.88R
6HR MIN TEMP:  63; 6HR MAX TEMP:  68;

PONTIAC        PTCLDY    59  42  53 SW7       29.90R
6HR MIN TEMP:  59; 6HR MAX TEMP:  67;

PORT HOPE        N/A     59  45  59 VRB6      29.81S
6HR MIN TEMP:  58; 6HR MAX TEMP:  66; 6HR PCP:  0.01;

PORT HURON     PTCLDY    59  45  58 CALM      29.89R
TRI CITIES     PTCLDY    58  45  62 SW8       29.86R
6HR MIN TEMP:  57; 6HR MAX TEMP:  68;

MIDLAND        FAIR      56  43  61 SW6       29.84R
6HR MIN TEMP:  56; 6HR MAX TEMP:  67;

TROY           PTCLDY    64  39  40 SW6       29.92R
SAGINAW HB     PTCLDY    55  46  71 SW8       29.85R
$$
MIZ043>046-050>051-056>058-064>065-071>073-077>080-270100-
SOUTHWEST LOWER MICHIGAN

CITY           SKY/WX    TMP DP  RH WIND       PRES   REMARKS
BATTLE CREEK   CLEAR     56  44  64 SW8       29.92S
6HR MIN TEMP:  56; 6HR MAX TEMP:  68;

BENTON HARBOR  PTCLDY    66  34  30 W21G31    29.91S
6HR MIN TEMP:  65; 6HR MAX TEMP:  69;

BIG RAPIDS     CLOUDY    56  41  58 W6        29.83S
6HR MIN TEMP:  55; 6HR MAX TEMP:  65;

COLDWATER      CLEAR     57  38  48 W6        29.93S
6HR MIN TEMP:  57; 6HR MAX TEMP:  69;

FREMONT        MOCLDY    57  38  49 W7        29.84S
HOLLAND        CLOUDY    64  38  38 W14G28    29.88F
6HR MIN TEMP:  64; 6HR MAX TEMP:  68;

GRAND RAPIDS   MOCLDY    58  43  57 SW10      29.87F
6HR MIN TEMP:  58; 6HR MAX TEMP:  67; 6HR PCP: TRACE;

IONIA          MOCLDY    57  41  55 SW8       29.87S
6HR MIN TEMP:  56; 6HR MAX TEMP:  66;

KALAMAZOO      CLEAR     58  42  55 SW5       29.92S
6HR MIN TEMP:  58; 6HR MAX TEMP:  68;

LUDINGTON      MOCLDY    62  40  44 W14G25    29.81S
6HR MIN TEMP:  61; 6HR MAX TEMP:  64;

MARSHALL       PTCLDY    57  43  60 S3        29.91S
6HR MIN TEMP:  57; 6HR MAX TEMP:  69;

MOUNT PLEASANT PTCLDY    57  43  58 SW5       29.84S
6HR MIN TEMP:  57; 6HR MAX TEMP:  66;

MUSKEGON       CLOUDY    65  38  36 W18G32    29.85F THUNDER
6HR MIN TEMP:  63; 6HR MAX TEMP:  67; 6HR PCP: TRACE;

SOUTH HAVEN    MOCLDY    66  38  35 W13G22    29.90S
$$
MIZ016>042-270100-
NORTHERN LOWER MICHIGAN

CITY           SKY/WX    TMP DP  RH WIND       PRES   REMARKS
ALPENA         MOCLDY    56  45  66 SW8       29.76S
6HR MIN TEMP:  56; 6HR MAX TEMP:  62;

BEAVER ISLAND  CLOUDY    56  47  71 W20G29    29.68F
6HR MIN TEMP:  55; 6HR MAX TEMP:  59;

BELLAIRE       CLOUDY    56  46  70 CALM      29.75S
6HR MIN TEMP:  54; 6HR MAX TEMP:  60;

CADILLAC       LGT RAIN  54  41  63 W18G30    29.80R
CHARLEVOIX     CLOUDY    58  43  57 W26G35    29.74S
FRANKFORT      LGT RAIN  58  45  62 W24G38    29.77R
GAYLORD        LGT RAIN  50  45  83 SW8       29.75F
6HR MIN TEMP:  50; 6HR MAX TEMP:  57; 6HR PCP:  0.06;

GRAYLING       RAIN      50  47  89 SW6       29.79S
HARBOR SPRINGS CLOUDY    57  47  71 W15G30    29.70S
HOUGHTON LAKE  PTCLDY    57  41  55 SW14G23   29.80R
6HR MIN TEMP:  57; 6HR MAX TEMP:  61;

MANISTEE       CLOUDY    61  42  49 W21G30    29.78F
OSCODA         PTCLDY    54  43  67 SW9       29.78S
6HR MIN TEMP:  54; 6HR MAX TEMP:  66;

PELLSTON       LGT RAIN  53  47  79 W14       29.71S
6HR MIN TEMP:  53; 6HR MAX TEMP:  59; 6HR PCP:  0.21;

ROGERS CITY    CLOUDY    53  47  82 SW10G18   29.74S
TRAVERSE CITY  LGT RAIN  54  47  77 SW7       29.76S
6HR MIN TEMP:  54; 6HR MAX TEMP:  61; 6HR PCP:  0.22;

$$
MIZ007>008-015-270100-
EASTERN UPPER MICHIGAN

CITY           SKY/WX    TMP DP  RH WIND       PRES   REMARKS
KINROSS        CLOUDY    53  47  79 W8        29.66R
6HR MIN TEMP:  53; 6HR MAX TEMP:  59; 6HR PCP: TRACE;

MACKINAC ISLAN LGT RAIN  55  48  77 W18       29.67S
NEWBERRY       CLOUDY    52  47  84 SW13G20   29.64S
6HR MIN TEMP:  52; 6HR MAX TEMP:  59; 6HR PCP:  0.02;

S. S. MARIE    CLOUDY    55  48  77 SW13G18   29.64S
6HR MIN TEMP:  55; 6HR MAX TEMP:  61; 6HR PCP:  0.01;

MUNISING         N/A     53  47  79 VRB5      29.63S
6HR MIN TEMP:  53; 6HR MAX TEMP:  58;

$$
MIZ004>006-011>014-085-270100-
CENTRAL UPPER MICHIGAN

CITY           SKY/WX    TMP DP  RH WIND       PRES   REMARKS
MANISTIQUE     CLOUDY    54  46  73 W10G17    29.67F
6HR MIN TEMP:  54; 6HR MAX TEMP:  60;

ESCANABA       CLOUDY    54  45  71 W14G21    29.69S
6HR MIN TEMP:  54; 6HR MAX TEMP:  58; 6HR PCP: TRACE;

MENOMINEE      CLOUDY    55  43  63 W10       29.76S
6HR MIN TEMP:  55; 6HR MAX TEMP:  59; 6HR PCP: TRACE;

SAWYER-GWINN   CLOUDY    50  45  81 W18G24    29.65S
$$
MIZ001>003-009>011-084-270100-
WESTERN UPPER MICHIGAN

CITY           SKY/WX    TMP DP  RH WIND       PRES   REMARKS
IRON MOUNTAIN  CLOUDY    50  44  80 W9        29.70S
6HR MIN TEMP:  50; 6HR MAX TEMP:  55; 6HR PCP: TRACE;

HOUGHTON       LGT RAIN  51  47  86 W29G38    29.54F
6HR MIN TEMP:  51; 6HR MAX TEMP:  54; 6HR PCP:  0.20;

COPPER HARBOR    N/A     54  48  80 NW15G25   29.50F
6HR MIN TEMP:  53; 6HR MAX TEMP:  56;

IRONWOOD       LGT RAIN  49  46  90 W18G25    29.70F
6HR MIN TEMP:  49; 6HR MAX TEMP:  50;

$$

ABBREVIATIONS USED IN REMARKS
   TC - TEMPERATURE IN CELSIUS
  WCI - WIND CHILL INDEX
   HX - HEAT INDEX
  VSB - VISIBILITY




USA.gov is the U.S. government's official web portal to all federal, state and local government web resources and services.